Zurück zum Katalog

STARLINK-31984

AktivKommunikationVLEO
NORAD 60018·PAYLOAD·🇺🇸 United States

Gestartet Jun 8, 2024 von Cape Canaveral Space Force Station

Loading…

Nächste Überflüge (nächste 24 Stunden)

TLE

AktuellSource: CelesTrak SupGP

Epoche: Sep 15, 2026, 02:57 UTC

1 60018C 24111C   26258.12340278 -.00007225  00000+0 -21326-3 0  2586
2 60018  53.1571 274.5427 0001207  87.5611 262.2950 15.34426127    10

Verfolge STARLINK-31984 in Echtzeit mit AllMySat

Download on the App Store